owner,sensor,date,latitude,longitude,vertical_datum,wind_speed,wind_to_direction,wind_speed_of_gust,qcFlag 
TABS,ioos:station:wmo:42047:1,2019-03-01T05:00:00Z,27.8966,-93.5973,4.0,6.62,144.6,7.6,'1111122,1111122,1111122' 
TABS,ioos:station:wmo:42047:1,2019-03-01T06:30:00Z,27.8966,-93.5973,4.0,3.54,143.5,5.21,'1111122,1111122,1111122' 
TABS,ioos:station:wmo:42047:1,2019-03-01T08:00:00Z,27.8966,-93.5973,4.0,4.38,352.8,6.18,'1111122,1111122,1111122' 
TABS,ioos:station:wmo:42047:1,2019-03-01T09:00:00Z,27.8966,-93.5973,4.0,2.62,26.3,3.25,'1111122,1111122,1111122' 
TABS,ioos:station:wmo:42047:1,2019-03-01T10:00:00Z,27.8966,-93.5973,4.0,8.63,352.8,9.74,'1111122,1111122,1111122' 
TABS,ioos:station:wmo:42047:1,2019-03-01T11:00:00Z,27.8966,-93.5973,4.0,7.21,15.0,8.35,'1111122,1111122,1111122' 
TABS,ioos:station:wmo:42047:1,2019-03-01T12:00:00Z,27.8966,-93.5973,4.0,6.18,38.9,7.2,'1111122,1111122,1111122' 
TABS,ioos:station:wmo:42047:1,2019-03-01T13:00:00Z,27.8966,-93.5973,4.0,6.75,62.1,7.95,'1111122,1111122,1111122' 
TABS,ioos:station:wmo:42047:1,2019-03-01T14:00:00Z,27.8966,-93.5973,4.0,3.72,114.2,4.5,'1111122,1111122,1111122' 
TABS,ioos:station:wmo:42047:1,2019-03-01T15:00:00Z,27.8966,-93.5973,4.0,1.58,133.3,1.89,'1111122,1111122,1111122' 
TABS,ioos:station:wmo:42047:1,2019-03-01T16:00:00Z,27.8966,-93.5973,4.0,0.39,60.3,2.27,'1111122,1111122,1111122' 
TABS,ioos:station:wmo:42047:1,2019-03-01T17:00:00Z,27.8966,-93.5973,4.0,5.29,164.8,6.12,'1111122,1111122,1111122' 
TABS,ioos:station:wmo:42047:1,2019-03-01T18:00:00Z,27.8966,-93.5973,4.0,2.79,189.5,3.46,'1111122,1111122,1111122' 
TABS,ioos:station:wmo:42047:1,2019-03-01T19:00:00Z,27.8966,-93.5973,4.0,1.46,186.1,1.8,'1111122,1111122,1111122' 
TABS,ioos:station:wmo:42047:1,2019-03-01T20:00:00Z,27.8966,-93.5973,4.0,2.04,211.5,2.37,'1111122,1111122,1111122' 
TABS,ioos:station:wmo:42047:1,2019-03-01T20:30:00Z,27.8966,-93.5973,4.0,2.15,233.2,2.6,'1111122,1111122,1111122' 
TABS,ioos:station:wmo:42047:1,2019-03-01T22:00:00Z,27.8966,-93.5973,4.0,1.08,256.1,1.44,'1111122,1111122,1111122' 
TABS,ioos:station:wmo:42047:1,2019-03-01T23:00:00Z,27.8966,-93.5973,4.0,2.64,7.1,4.1,'1111122,1111122,1111122' 
TABS,ioos:station:wmo:42047:1,2019-03-01T23:30:00Z,27.8966,-93.5973,4.0,3.61,21.5,4.48,'1111122,1111122,1111122' 
TABS,ioos:station:wmo:42047:1,2019-03-02T06:00:00Z,27.8966,-93.5973,4.0,1.82,137.4,2.15,'1111122,1111122,1111122' 
TABS,ioos:station:wmo:42047:1,2019-03-02T07:00:00Z,27.8966,-93.5973,4.0,2.21,140.1,2.57,'1111122,1111122,1111122' 
TABS,ioos:station:wmo:42047:1,2019-03-02T08:00:00Z,27.8966,-93.5973,4.0,2.46,144.4,3.17,'1111122,1111122,1111122' 
TABS,ioos:station:wmo:42047:1,2019-03-02T09:00:00Z,27.8966,-93.5973,4.0,2.56,152.8,3.08,'1111122,1111122,1111122' 
TABS,ioos:station:wmo:42047:1,2019-03-02T10:00:00Z,27.8966,-93.5973,4.0,2.71,154.0,4.19,'1111122,1111122,1111122' 
TABS,ioos:station:wmo:42047:1,2019-03-02T11:00:00Z,27.8966,-93.5973,4.0,1.46,155.0,1.94,'1111122,1111122,1111122' 
TABS,ioos:station:wmo:42047:1,2019-03-02T12:00:00Z,27.8966,-93.5973,4.0,1.9,28.6,2.21,'1111122,1111122,1111122' 
TABS,ioos:station:wmo:42047:1,2019-03-02T13:00:00Z,27.8966,-93.5973,4.0,3.95,33.1,4.51,'1111122,1111122,1111122' 
TABS,ioos:station:wmo:42047:1,2019-03-02T14:00:00Z,27.8966,-93.5973,4.0,4.56,66.0,5.36,'1111122,1111122,1111122' 
TABS,ioos:station:wmo:42047:1,2019-03-02T15:00:00Z,27.8966,-93.5973,4.0,4.74,73.6,5.93,'1111122,1111122,1111122' 
TABS,ioos:station:wmo:42047:1,2019-03-02T16:00:00Z,27.8966,-93.5973,4.0,4.72,76.1,5.51,'1111122,1111122,1111122' 
TABS,ioos:station:wmo:42047:1,2019-03-02T17:00:00Z,27.8966,-93.5973,4.0,5.27,88.7,6.15,'1111122,1111122,1111122' 
TABS,ioos:station:wmo:42047:1,2019-03-02T18:00:00Z,27.8966,-93.5973,4.0,4.15,91.6,4.84,'1111122,1111122,1111122' 
TABS,ioos:station:wmo:42047:1,2019-03-02T19:00:00Z,27.8966,-93.5973,4.0,3.29,107.1,4.15,'1111122,1111122,1111122' 
TABS,ioos:station:wmo:42047:1,2019-03-02T20:00:00Z,27.8966,-93.5973,4.0,2.36,130.0,2.76,'1111122,1111122,1111122' 
TABS,ioos:station:wmo:42047:1,2019-03-02T21:00:00Z,27.8966,-93.5973,4.0,3.54,133.1,4.14,'1111122,1111122,1111122' 
TABS,ioos:station:wmo:42047:1,2019-03-02T22:00:00Z,27.8966,-93.5973,4.0,3.05,136.0,3.51,'1111122,1111122,1111122' 
TABS,ioos:station:wmo:42047:1,2019-03-02T23:00:00Z,27.8966,-93.5973,4.0,3.99,121.2,4.55,'1111122,1111122,1111122' 
TABS,ioos:station:wmo:42047:1,2019-03-02T23:30:00Z,27.8966,-93.5973,4.0,4.57,119.3,5.52,'1111122,1111122,1111122' 
TABS,ioos:station:wmo:42047:1,2019-03-03T06:00:00Z,27.8966,-93.5973,4.0,5.05,139.1,6.16,'1111122,1111122,1111122' 
TABS,ioos:station:wmo:42047:1,2019-03-03T07:00:00Z,27.8966,-93.5973,4.0,5.4,147.5,6.53,'1111122,1111122,1111122' 
TABS,ioos:station:wmo:42047:1,2019-03-03T08:00:00Z,27.8966,-93.5973,4.0,6.34,156.2,7.51,'1111122,1111122,1111122' 
TABS,ioos:station:wmo:42047:1,2019-03-03T09:00:00Z,27.8966,-93.5973,4.0,5.94,155.7,6.67,'1111122,1111122,1111122' 
TABS,ioos:station:wmo:42047:1,2019-03-03T09:30:00Z,27.8966,-93.5973,4.0,6.24,161.0,7.61,'1111122,1111122,1111122' 
TABS,ioos:station:wmo:42047:1,2019-03-03T11:00:00Z,27.8966,-93.5973,4.0,7.88,170.7,9.19,'1111122,1111122,1111122' 
TABS,ioos:station:wmo:42047:1,2019-03-03T12:00:00Z,27.8966,-93.5973,4.0,7.24,166.0,8.64,'1111122,1111122,1111122' 
TABS,ioos:station:wmo:42047:1,2019-03-03T13:00:00Z,27.8966,-93.5973,4.0,7.19,167.3,8.77,'1111122,1111122,1111122' 
TABS,ioos:station:wmo:42047:1,2019-03-03T14:00:00Z,27.8966,-93.5973,4.0,7.21,169.0,8.2,'1111122,1111122,1111122' 
TABS,ioos:station:wmo:42047:1,2019-03-03T15:00:00Z,27.8966,-93.5973,4.0,7.07,173.2,8.37,'1111122,1111122,1111122' 
TABS,ioos:station:wmo:42047:1,2019-03-03T16:00:00Z,27.8966,-93.5973,4.0,6.2,188.2,7.11,'1111122,1111122,1111122' 
TABS,ioos:station:wmo:42047:1,2019-03-03T17:00:00Z,27.8966,-93.5973,4.0,4.72,201.3,5.57,'1111122,1111122,1111122' 
TABS,ioos:station:wmo:42047:1,2019-03-03T18:00:00Z,27.8966,-93.5973,4.0,4.03,223.2,4.63,'1111122,1111122,1111122' 
TABS,ioos:station:wmo:42047:1,2019-03-03T19:00:00Z,27.8966,-93.5973,4.0,3.89,254.2,4.76,'1111122,1111122,1111122' 
TABS,ioos:station:wmo:42047:1,2019-03-03T20:00:00Z,27.8966,-93.5973,4.0,5.46,203.9,6.36,'1111122,1111122,1111122' 
TABS,ioos:station:wmo:42047:1,2019-03-03T21:00:00Z,27.8966,-93.5973,4.0,5.32,212.6,6.09,'1111122,1111122,1111122' 
TABS,ioos:station:wmo:42047:1,2019-03-03T22:00:00Z,27.8966,-93.5973,4.0,11.68,331.7,13.25,'1111122,1111122,1111122' 
TABS,ioos:station:wmo:42047:1,2019-03-03T23:00:00Z,27.8966,-93.5973,4.0,12.25,357.3,13.94,'1111122,1111122,1111122' 
TABS,ioos:station:wmo:42047:1,2019-03-03T23:30:00Z,27.8966,-93.5973,4.0,11.8,357.6,13.89,'1111122,1111122,1111122' 
TABS,ioos:station:wmo:42047:1,2019-03-04T05:00:00Z,27.8966,-93.5973,4.0,11.92,16.9,14.27,'1111122,1111122,1111122' 
TABS,ioos:station:wmo:42047:1,2019-03-04T06:00:00Z,27.8966,-93.5973,4.0,11.23,33.5,13.44,'1111122,1111122,1111122' 
TABS,ioos:station:wmo:42047:1,2019-03-04T07:00:00Z,27.8966,-93.5973,4.0,11.38,27.0,13.6,'1111122,1111122,1111122' 
TABS,ioos:station:wmo:42047:1,2019-03-04T08:00:00Z,27.8966,-93.5973,4.0,10.6,35.4,12.68,'1111122,1111122,1111122' 
TABS,ioos:station:wmo:42047:1,2019-03-04T09:00:00Z,27.8966,-93.5973,4.0,10.66,25.0,12.65,'1111122,1111122,1111122' 
TABS,ioos:station:wmo:42047:1,2019-03-04T10:00:00Z,27.8966,-93.5973,4.0,11.83,30.0,14.06,'1111122,1111122,1111122' 
TABS,ioos:station:wmo:42047:1,2019-03-04T11:00:00Z,27.8966,-93.5973,4.0,10.25,44.5,11.98,'1111122,1111122,1111122' 
TABS,ioos:station:wmo:42047:1,2019-03-04T12:00:00Z,27.8966,-93.5973,4.0,9.69,41.1,11.38,'1111122,1111122,1111122' 
TABS,ioos:station:wmo:42047:1,2019-03-04T13:00:00Z,27.8966,-93.5973,4.0,9.84,32.2,11.7,'1111122,1111122,1111122' 
TABS,ioos:station:wmo:42047:1,2019-03-04T13:30:00Z,27.8966,-93.5973,4.0,9.93,32.3,11.9,'1111122,1111122,1111122' 
TABS,ioos:station:wmo:42047:1,2019-03-04T15:00:00Z,27.8966,-93.5973,4.0,9.95,37.0,12.13,'1111122,1111122,1111122' 
TABS,ioos:station:wmo:42047:1,2019-03-04T16:00:00Z,27.8966,-93.5973,4.0,10.93,31.9,13.24,'1111122,1111122,1111122' 
TABS,ioos:station:wmo:42047:1,2019-03-04T17:00:00Z,27.8966,-93.5973,4.0,8.94,23.6,12.3,'1111122,1111122,1111122' 
TABS,ioos:station:wmo:42047:1,2019-03-04T18:00:00Z,27.8966,-93.5973,4.0,8.51,27.0,10.56,'1111122,1111122,1111122' 
TABS,ioos:station:wmo:42047:1,2019-03-04T18:30:00Z,27.8966,-93.5973,4.0,8.98,12.5,10.97,'1111122,1111122,1111122' 
TABS,ioos:station:wmo:42047:1,2019-03-04T19:30:00Z,27.8966,-93.5973,4.0,8.16,12.4,10.5,'1111122,1111122,1111122' 
TABS,ioos:station:wmo:42047:1,2019-03-04T21:00:00Z,27.8966,-93.5973,4.0,10.96,10.8,13.46,'1111122,1111122,1111122' 
TABS,ioos:station:wmo:42047:1,2019-03-04T22:00:00Z,27.8966,-93.5973,4.0,11.16,24.0,13.36,'1111122,1111122,1111122' 
TABS,ioos:station:wmo:42047:1,2019-03-04T23:00:00Z,27.8966,-93.5973,4.0,10.61,10.8,13.07,'1111122,1111122,1111122' 
TABS,ioos:station:wmo:42047:1,2019-03-04T23:30:00Z,27.8966,-93.5973,4.0,11.11,5.5,13.83,'1111122,1111122,1111122' 
TABS,ioos:station:wmo:42047:1,2019-03-05T04:30:00Z,27.8966,-93.5973,4.0,9.46,10.6,12.59,'1111122,1111122,1111122' 
TABS,ioos:station:wmo:42047:1,2019-03-05T05:30:00Z,27.8966,-93.5973,4.0,9.07,9.7,11.36,'1111122,1111122,1111122' 
TABS,ioos:station:wmo:42047:1,2019-03-05T07:00:00Z,27.8966,-93.5973,4.0,10.18,10.5,12.89,'1111122,1111122,1111122' 
TABS,ioos:station:wmo:42047:1,2019-03-05T08:00:00Z,27.8966,-93.5973,4.0,10.87,356.3,14.02,'1111122,1111122,1111122' 
TABS,ioos:station:wmo:42047:1,2019-03-05T09:00:00Z,27.8966,-93.5973,4.0,10.78,3.5,13.95,'1111122,1111122,1111122' 
TABS,ioos:station:wmo:42047:1,2019-03-05T10:00:00Z,27.8966,-93.5973,4.0,11.1,13.1,13.78,'1111122,1111122,1111122' 
TABS,ioos:station:wmo:42047:1,2019-03-05T11:00:00Z,27.8966,-93.5973,4.0,10.35,17.6,12.89,'1111122,1111122,1111122' 
TABS,ioos:station:wmo:42047:1,2019-03-05T12:00:00Z,27.8966,-93.5973,4.0,9.72,26.0,12.8,'1111122,1111122,1111122' 
TABS,ioos:station:wmo:42047:1,2019-03-05T13:00:00Z,27.8966,-93.5973,4.0,10.35,358.7,13.0,'1111122,1111122,1111122' 
TABS,ioos:station:wmo:42047:1,2019-03-05T14:00:00Z,27.8966,-93.5973,4.0,11.28,3.2,14.37,'1111122,1111122,1111122' 
TABS,ioos:station:wmo:42047:1,2019-03-05T15:00:00Z,27.8966,-93.5973,4.0,10.57,4.5,12.34,'1111122,1111122,1111122' 
TABS,ioos:station:wmo:42047:1,2019-03-05T16:00:00Z,27.8966,-93.5973,4.0,10.15,12.2,13.72,'1111122,1111122,1111122' 
TABS,ioos:station:wmo:42047:1,2019-03-05T17:00:00Z,27.8966,-93.5973,4.0,9.27,10.9,11.9,'1111122,1111122,1111122' 
TABS,ioos:station:wmo:42047:1,2019-03-05T18:00:00Z,27.8966,-93.5973,4.0,9.31,11.3,11.7,'1111122,1111122,1111122' 
TABS,ioos:station:wmo:42047:1,2019-03-05T18:30:00Z,27.8966,-93.5973,4.0,8.85,3.4,12.01,'1111122,1111122,1111122' 
TABS,ioos:station:wmo:42047:1,2019-03-05T20:00:00Z,27.8966,-93.5973,4.0,8.76,11.1,10.6,'1111122,1111122,1111122' 
TABS,ioos:station:wmo:42047:1,2019-03-05T22:00:00Z,27.8966,-93.5973,4.0,9.11,10.6,12.2,'1111122,1111122,1111122' 
TABS,ioos:station:wmo:42047:1,2019-03-05T23:00:00Z,27.8966,-93.5973,4.0,8.67,11.3,11.09,'1111122,1111122,1111122' 
TABS,ioos:station:wmo:42047:1,2019-03-05T23:30:00Z,27.8966,-93.5973,4.0,8.67,0.7,10.86,'1111122,1111122,1111122' 
TABS,ioos:station:wmo:42047:1,2019-03-06T04:30:00Z,27.8966,-93.5973,4.0,7.91,30.4,10.12,'1111122,1111122,1111122' 
TABS,ioos:station:wmo:42047:1,2019-03-06T06:00:00Z,27.8966,-93.5973,4.0,7.96,41.5,10.08,'1111122,1111122,1111122' 
TABS,ioos:station:wmo:42047:1,2019-03-06T07:00:00Z,27.8966,-93.5973,4.0,7.31,35.8,9.66,'1111122,1111122,1111122' 
TABS,ioos:station:wmo:42047:1,2019-03-06T08:00:00Z,27.8966,-93.5973,4.0,7.59,54.1,9.46,'1111122,1111122,1111122' 
TABS,ioos:station:wmo:42047:1,2019-03-06T09:00:00Z,27.8966,-93.5973,4.0,7.2,43.7,10.55,'1111122,1111122,1111122' 
TABS,ioos:station:wmo:42047:1,2019-03-06T10:00:00Z,27.8966,-93.5973,4.0,7.69,51.7,9.83,'1111122,1111122,1111122' 
TABS,ioos:station:wmo:42047:1,2019-03-06T11:00:00Z,27.8966,-93.5973,4.0,7.63,53.0,9.72,'1111122,1111122,1111122' 
TABS,ioos:station:wmo:42047:1,2019-03-06T12:00:00Z,27.8966,-93.5973,4.0,7.86,45.6,10.14,'1111122,1111122,1111122' 
TABS,ioos:station:wmo:42047:1,2019-03-06T13:00:00Z,27.8966,-93.5973,4.0,8.27,61.1,10.62,'1111122,1111122,1111122' 
TABS,ioos:station:wmo:42047:1,2019-03-06T14:00:00Z,27.8966,-93.5973,4.0,8.07,59.5,9.87,'1111122,1111122,1111122' 
TABS,ioos:station:wmo:42047:1,2019-03-06T15:00:00Z,27.8966,-93.5973,4.0,7.79,68.5,9.98,'1111122,1111122,1111122' 
TABS,ioos:station:wmo:42047:1,2019-03-06T16:00:00Z,27.8966,-93.5973,4.0,7.54,85.6,10.63,'1111122,1111122,1111122' 
TABS,ioos:station:wmo:42047:1,2019-03-06T17:00:00Z,27.8966,-93.5973,4.0,7.7,85.4,10.57,'1111122,1111122,1111122' 
TABS,ioos:station:wmo:42047:1,2019-03-06T18:00:00Z,27.8966,-93.5973,4.0,6.99,81.8,9.46,'1111122,1111122,1111122' 
TABS,ioos:station:wmo:42047:1,2019-03-06T19:00:00Z,27.8966,-93.5973,4.0,7.22,94.5,9.22,'1111122,1111122,1111122' 
TABS,ioos:station:wmo:42047:1,2019-03-06T20:00:00Z,27.8966,-93.5973,4.0,6.71,101.3,8.81,'1111122,1111122,1111122' 
TABS,ioos:station:wmo:42047:1,2019-03-06T21:00:00Z,27.8966,-93.5973,4.0,6.98,101.0,8.89,'1111122,1111122,1111122' 
TABS,ioos:station:wmo:42047:1,2019-03-06T22:00:00Z,27.8966,-93.5973,4.0,6.64,113.5,8.45,'1111122,1111122,1111122' 
TABS,ioos:station:wmo:42047:1,2019-03-06T23:00:00Z,27.8966,-93.5973,4.0,5.97,95.9,8.72,'1111122,1111122,1111122' 
TABS,ioos:station:wmo:42047:1,2019-03-06T23:30:00Z,27.8966,-93.5973,4.0,6.31,103.7,8.16,'1111122,1111122,1111122' 
TABS,ioos:station:wmo:42047:1,2019-03-07T05:00:00Z,27.8966,-93.5973,4.0,7.41,133.0,9.27,'1111122,1111122,1111122' 
TABS,ioos:station:wmo:42047:1,2019-03-07T06:00:00Z,27.8966,-93.5973,4.0,7.94,128.9,9.92,'1111122,1111122,1111122' 
TABS,ioos:station:wmo:42047:1,2019-03-07T07:00:00Z,27.8966,-93.5973,4.0,8.18,147.6,9.87,'1111122,1111122,1111122' 
TABS,ioos:station:wmo:42047:1,2019-03-07T08:00:00Z,27.8966,-93.5973,4.0,7.54,145.2,8.93,'1111122,1111122,1111122' 
TABS,ioos:station:wmo:42047:1,2019-03-07T09:00:00Z,27.8966,-93.5973,4.0,8.29,145.2,9.88,'1111122,1111122,1111122' 
TABS,ioos:station:wmo:42047:1,2019-03-07T10:00:00Z,27.8966,-93.5973,4.0,7.81,152.8,9.48,'1111122,1111122,1111122' 
TABS,ioos:station:wmo:42047:1,2019-03-07T11:00:00Z,27.8966,-93.5973,4.0,7.75,153.8,9.25,'1111122,1111122,1111122' 
TABS,ioos:station:wmo:42047:1,2019-03-07T12:00:00Z,27.8966,-93.5973,4.0,7.4,144.9,9.09,'1111122,1111122,1111122' 
TABS,ioos:station:wmo:42047:1,2019-03-07T13:00:00Z,27.8966,-93.5973,4.0,7.47,148.7,8.82,'1111122,1111122,1111122' 
TABS,ioos:station:wmo:42047:1,2019-03-07T14:00:00Z,27.8966,-93.5973,4.0,7.99,143.3,9.84,'1111122,1111122,1111122' 
TABS,ioos:station:wmo:42047:1,2019-03-07T15:00:00Z,27.8966,-93.5973,4.0,8.03,137.4,9.25,'1111122,1111122,1111122' 
TABS,ioos:station:wmo:42047:1,2019-03-07T16:00:00Z,27.8966,-93.5973,4.0,8.33,138.2,9.94,'1111122,1111122,1111122' 
TABS,ioos:station:wmo:42047:1,2019-03-07T17:00:00Z,27.8966,-93.5973,4.0,9.38,143.4,10.34,'1111122,1111122,1111122' 
TABS,ioos:station:wmo:42047:1,2019-03-07T18:00:00Z,27.8966,-93.5973,4.0,9.54,142.7,10.72,'1111122,1111122,1111122' 
TABS,ioos:station:wmo:42047:1,2019-03-07T19:00:00Z,27.8966,-93.5973,4.0,9.48,149.3,10.99,'1111122,1111122,1111122' 
TABS,ioos:station:wmo:42047:1,2019-03-07T20:00:00Z,27.8966,-93.5973,4.0,9.0,147.2,10.25,'1111122,1111122,1111122' 
TABS,ioos:station:wmo:42047:1,2019-03-07T21:00:00Z,27.8966,-93.5973,4.0,9.21,147.7,10.5,'1111122,1111122,1111122' 
TABS,ioos:station:wmo:42047:1,2019-03-07T22:00:00Z,27.8966,-93.5973,4.0,8.76,146.1,10.43,'1111122,1111122,1111122' 
TABS,ioos:station:wmo:42047:1,2019-03-07T23:00:00Z,27.8966,-93.5973,4.0,8.28,145.2,9.5,'1111122,1111122,1111122' 
TABS,ioos:station:wmo:42047:1,2019-03-07T23:30:00Z,27.8966,-93.5973,4.0,8.57,143.8,9.87,'1111122,1111122,1111122' 
TABS,ioos:station:wmo:42047:1,2019-03-08T05:00:00Z,27.8966,-93.5973,4.0,8.95,157.2,10.78,'1111122,1111122,1111122' 
TABS,ioos:station:wmo:42047:1,2019-03-08T06:00:00Z,27.8966,-93.5973,4.0,8.79,156.5,10.55,'1111122,1111122,1111122' 
TABS,ioos:station:wmo:42047:1,2019-03-08T07:00:00Z,27.8966,-93.5973,4.0,8.18,160.0,10.09,'1111122,1111122,1111122' 
TABS,ioos:station:wmo:42047:1,2019-03-08T08:00:00Z,27.8966,-93.5973,4.0,8.86,162.9,10.27,'1111122,1111122,1111122' 
TABS,ioos:station:wmo:42047:1,2019-03-08T09:00:00Z,27.8966,-93.5973,4.0,9.18,165.3,10.7,'1111122,1111122,1111122' 
TABS,ioos:station:wmo:42047:1,2019-03-08T10:00:00Z,27.8966,-93.5973,4.0,8.7,165.7,10.04,'1111122,1111122,1111122' 
TABS,ioos:station:wmo:42047:1,2019-03-08T12:00:00Z,27.8966,-93.5973,4.0,7.84,171.2,9.62,'1111122,1111122,1111122' 
TABS,ioos:station:wmo:42047:1,2019-03-08T13:00:00Z,27.8966,-93.5973,4.0,6.8,169.6,7.81,'1111122,1111122,1111122' 
TABS,ioos:station:wmo:42047:1,2019-03-08T15:30:00Z,27.8966,-93.5973,4.0,7.1,164.8,8.19,'1111122,1111122,1111122' 
TABS,ioos:station:wmo:42047:1,2019-03-08T17:00:00Z,27.8966,-93.5973,4.0,7.66,163.4,8.74,'1111122,1111122,1111122' 
TABS,ioos:station:wmo:42047:1,2019-03-08T17:30:00Z,27.8966,-93.5973,4.0,7.0,162.6,8.37,'1111122,1111122,1111122' 
TABS,ioos:station:wmo:42047:1,2019-03-08T18:30:00Z,27.8966,-93.5973,4.0,6.75,155.6,7.64,'1111122,1111122,1111122' 
TABS,ioos:station:wmo:42047:1,2019-03-08T20:00:00Z,27.8966,-93.5973,4.0,7.94,162.7,9.21,'1111122,1111122,1111122' 
TABS,ioos:station:wmo:42047:1,2019-03-08T21:00:00Z,27.8966,-93.5973,4.0,6.26,158.2,7.19,'1111122,1111122,1111122' 
TABS,ioos:station:wmo:42047:1,2019-03-08T22:00:00Z,27.8966,-93.5973,4.0,6.84,155.3,8.48,'1111122,1111122,1111122' 
TABS,ioos:station:wmo:42047:1,2019-03-08T23:00:00Z,27.8966,-93.5973,4.0,7.4,151.3,8.59,'1111122,1111122,1111122' 
TABS,ioos:station:wmo:42047:1,2019-03-08T23:30:00Z,27.8966,-93.5973,4.0,7.98,146.6,8.92,'1111122,1111122,1111122' 
TABS,ioos:station:wmo:42047:1,2019-03-09T05:00:00Z,27.8966,-93.5973,4.0,6.97,146.0,8.01,'1111122,1111122,1111122' 
TABS,ioos:station:wmo:42047:1,2019-03-09T06:00:00Z,27.8966,-93.5973,4.0,9.34,157.1,11.69,'1111122,1111122,1111122' 
TABS,ioos:station:wmo:42047:1,2019-03-09T07:00:00Z,27.8966,-93.5973,4.0,9.52,153.1,11.56,'1111122,1111122,1111122' 
TABS,ioos:station:wmo:42047:1,2019-03-09T08:00:00Z,27.8966,-93.5973,4.0,9.55,156.3,11.25,'1111122,1111122,1111122' 
TABS,ioos:station:wmo:42047:1,2019-03-09T09:00:00Z,27.8966,-93.5973,4.0,10.04,157.8,12.33,'1111122,1111122,1111122' 
TABS,ioos:station:wmo:42047:1,2019-03-09T10:00:00Z,27.8966,-93.5973,4.0,10.9,156.6,12.7,'1111122,1111122,1111122' 
TABS,ioos:station:wmo:42047:1,2019-03-09T11:00:00Z,27.8966,-93.5973,4.0,10.03,157.8,12.09,'1111122,1111122,1111122' 
TABS,ioos:station:wmo:42047:1,2019-03-09T12:00:00Z,27.8966,-93.5973,4.0,8.25,158.8,9.98,'1111122,1111122,1111122' 
TABS,ioos:station:wmo:42047:1,2019-03-09T13:00:00Z,27.8966,-93.5973,4.0,8.79,155.6,10.37,'1111122,1111122,1111122' 
TABS,ioos:station:wmo:42047:1,2019-03-09T14:00:00Z,27.8966,-93.5973,4.0,7.7,158.0,8.83,'1111122,1111122,1111122' 
TABS,ioos:station:wmo:42047:1,2019-03-09T15:00:00Z,27.8966,-93.5973,4.0,8.93,153.4,10.15,'1111122,1111122,1111122' 
TABS,ioos:station:wmo:42047:1,2019-03-09T16:00:00Z,27.8966,-93.5973,4.0,10.24,150.4,12.46,'1111122,1111122,1111122' 
TABS,ioos:station:wmo:42047:1,2019-03-09T17:00:00Z,27.8966,-93.5973,4.0,10.39,153.1,12.13,'1111122,1111122,1111122' 
TABS,ioos:station:wmo:42047:1,2019-03-09T18:00:00Z,27.8966,-93.5973,4.0,8.46,154.5,9.64,'1111122,1111122,1111122' 
TABS,ioos:station:wmo:42047:1,2019-03-09T19:00:00Z,27.8966,-93.5973,4.0,8.89,154.3,10.1,'1111122,1111122,1111122' 
TABS,ioos:station:wmo:42047:1,2019-03-09T20:00:00Z,27.8966,-93.5973,4.0,8.66,158.0,9.94,'1111122,1111122,1111122' 
TABS,ioos:station:wmo:42047:1,2019-03-09T21:00:00Z,27.8966,-93.5973,4.0,8.28,159.7,9.29,'1111122,1111122,1111122' 
TABS,ioos:station:wmo:42047:1,2019-03-09T22:00:00Z,27.8966,-93.5973,4.0,7.24,160.1,8.37,'1111122,1111122,1111122' 
TABS,ioos:station:wmo:42047:1,2019-03-09T23:00:00Z,27.8966,-93.5973,4.0,7.01,155.7,8.76,'1111122,1111122,1111122' 
TABS,ioos:station:wmo:42047:1,2019-03-09T23:30:00Z,27.8966,-93.5973,4.0,6.73,156.8,8.19,'1111122,1111122,1111122' 
TABS,ioos:station:wmo:42047:1,2019-03-10T05:00:00Z,27.8966,-93.5973,4.0,6.12,149.9,7.24,'1111122,1111122,1111122' 
TABS,ioos:station:wmo:42047:1,2019-03-10T06:00:00Z,27.8966,-93.5973,4.0,5.98,156.3,6.93,'1111122,1111122,1111122' 
TABS,ioos:station:wmo:42047:1,2019-03-10T07:00:00Z,27.8966,-93.5973,4.0,6.67,155.9,7.81,'1111122,1111122,1111122' 
TABS,ioos:station:wmo:42047:1,2019-03-10T08:00:00Z,27.8966,-93.5973,4.0,6.46,153.6,7.37,'1111122,1111122,1111122' 
TABS,ioos:station:wmo:42047:1,2019-03-10T09:00:00Z,27.8966,-93.5973,4.0,6.44,158.2,8.21,'1111122,1111122,1111122' 
TABS,ioos:station:wmo:42047:1,2019-03-10T10:00:00Z,27.8966,-93.5973,4.0,6.64,158.9,8.14,'1111122,1111122,1111122' 
TABS,ioos:station:wmo:42047:1,2019-03-10T11:00:00Z,27.8966,-93.5973,4.0,6.61,157.9,7.61,'1111122,1111122,1111122' 
TABS,ioos:station:wmo:42047:1,2019-03-10T12:00:00Z,27.8966,-93.5973,4.0,6.27,156.0,7.25,'1111122,1111122,1111122' 
TABS,ioos:station:wmo:42047:1,2019-03-10T12:30:00Z,27.8966,-93.5973,4.0,5.73,155.5,6.64,'1111122,1111122,1111122' 
TABS,ioos:station:wmo:42047:1,2019-03-10T14:00:00Z,27.8966,-93.5973,4.0,6.08,147.7,7.13,'1111122,1111122,1111122' 
TABS,ioos:station:wmo:42047:1,2019-03-10T15:00:00Z,27.8966,-93.5973,4.0,4.96,134.8,5.58,'1111122,1111122,1111122' 
TABS,ioos:station:wmo:42047:1,2019-03-10T16:00:00Z,27.8966,-93.5973,4.0,4.46,141.5,5.24,'1111122,1111122,1111122' 
TABS,ioos:station:wmo:42047:1,2019-03-10T17:00:00Z,27.8966,-93.5973,4.0,2.69,124.6,3.1,'1111122,1111122,1111122' 
TABS,ioos:station:wmo:42047:1,2019-03-10T18:00:00Z,27.8966,-93.5973,4.0,3.15,119.9,3.84,'1111122,1111122,1111122' 
TABS,ioos:station:wmo:42047:1,2019-03-10T19:00:00Z,27.8966,-93.5973,4.0,3.57,115.3,4.43,'1111122,1111122,1111122' 
TABS,ioos:station:wmo:42047:1,2019-03-10T20:00:00Z,27.8966,-93.5973,4.0,4.8,113.7,6.06,'1111122,1111122,1111122' 
TABS,ioos:station:wmo:42047:1,2019-03-10T21:00:00Z,27.8966,-93.5973,4.0,4.71,105.3,5.65,'1111122,1111122,1111122' 
TABS,ioos:station:wmo:42047:1,2019-03-11T04:00:00Z,27.8966,-93.5973,4.0,5.91,139.7,7.05,'1111122,1111122,1111122' 
TABS,ioos:station:wmo:42047:1,2019-03-11T05:00:00Z,27.8966,-93.5973,4.0,5.82,139.9,7.07,'1111122,1111122,1111122' 
TABS,ioos:station:wmo:42047:1,2019-03-11T06:00:00Z,27.8966,-93.5973,4.0,7.84,149.3,9.13,'1111122,1111122,1111122' 
TABS,ioos:station:wmo:42047:1,2019-03-11T07:30:00Z,27.8966,-93.5973,4.0,7.26,145.4,8.28,'1111122,1111122,1111122' 
TABS,ioos:station:wmo:42047:1,2019-03-11T08:30:00Z,27.8966,-93.5973,4.0,8.03,147.3,9.17,'1111122,1111122,1111122' 
TABS,ioos:station:wmo:42047:1,2019-03-11T09:30:00Z,27.8966,-93.5973,4.0,7.57,148.9,9.23,'1111122,1111122,1111122' 
TABS,ioos:station:wmo:42047:1,2019-03-11T11:00:00Z,27.8966,-93.5973,4.0,5.83,141.5,7.01,'1111122,1111122,1111122' 
TABS,ioos:station:wmo:42047:1,2019-03-11T12:00:00Z,27.8966,-93.5973,4.0,6.88,137.6,8.4,'1111122,1111122,1111122' 
TABS,ioos:station:wmo:42047:1,2019-03-11T13:00:00Z,27.8966,-93.5973,4.0,4.96,129.0,5.78,'1111122,1111122,1111122' 
TABS,ioos:station:wmo:42047:1,2019-03-11T14:00:00Z,27.8966,-93.5973,4.0,2.96,126.9,3.76,'1111122,1111122,1111122' 
TABS,ioos:station:wmo:42047:1,2019-03-11T15:00:00Z,27.8966,-93.5973,4.0,3.92,137.1,4.59,'1111122,1111122,1111122' 
TABS,ioos:station:wmo:42047:1,2019-03-11T16:00:00Z,27.8966,-93.5973,4.0,3.5,121.8,4.42,'1111122,1111122,1111122' 
TABS,ioos:station:wmo:42047:1,2019-03-11T17:00:00Z,27.8966,-93.5973,4.0,3.52,118.2,4.03,'1111122,1111122,1111122' 
TABS,ioos:station:wmo:42047:1,2019-03-11T18:00:00Z,27.8966,-93.5973,4.0,3.6,114.8,4.22,'1111122,1111122,1111122' 
TABS,ioos:station:wmo:42047:1,2019-03-11T19:00:00Z,27.8966,-93.5973,4.0,3.15,87.6,3.95,'1111122,1111122,1111122' 
TABS,ioos:station:wmo:42047:1,2019-03-11T20:00:00Z,27.8966,-93.5973,4.0,3.09,80.2,3.59,'1111122,1111122,1111122' 
TABS,ioos:station:wmo:42047:1,2019-03-11T21:00:00Z,27.8966,-93.5973,4.0,3.7,100.4,4.35,'1111122,1111122,1111122' 